{"data":{"norad_id":58674,"epoch":"2026-05-23T23:44:52.171872Z","epoch_age_seconds":172611,"freshness":"FRESH","line1":"1 58674U 23211H   26143.98949273  .00003084  00000+0  12155-3 0  9997","line2":"2 58674  43.0044  19.7792 0001506 272.1686  87.8993 15.27581037133983","mean_motion":15.27581037,"eccentricity":0.0001506,"inclination_deg":43.0044,"raan_deg":19.7792,"arg_perigee_deg":272.1686,"mean_anomaly_deg":87.8993,"bstar":0.00012155,"rev_number":13398,"period_min":94.26668472057,"perigee_km":482.01269673192,"apogee_km":484.07928504878,"semimajor_km":6861.1829908904,"source":"CELESTRAK","updated_at":"2026-05-25T13:38:18.711197Z"}}